GFSGL_250_spd_000.txt.gz
Wind_Speed
3 6 7 13 20 32 27 21 25 20 15 13 16 16 17 17 19 23 27 35 35 32 33 31 35 38 43 45 44 45 52 61 67 70 61 59 64 55 55 59 61 56 53
2 6 5 14 20 30 30 22 22 26 22 18 15 13 13 17 17 25 30 37 35 37 29 29 31 34 35 39 38 45 55 55 70 67 51 59 49 45 62 56 54 52 48
4 7 5 9 17 24 34 20 17 24 24 24 15 13 10 16 18 20 25 36 33 38 33 27 30 31 33 32 30 41 49 59 54 65 51 59 49 49 53 52 51 54 50
4 8 2 4 10 17 23 35 20 15 21 25 23 15 12 13 14 19 22 41 38 29 34 32 32 30 29 38 35 32 39 49 64 55 51 55 52 48 44 42 37 48 60
5 8 5 1 5 13 19 25 31 19 16 20 21 18 13 11 14 14 20 26 40 33 36 33 29 31 29 26 33 33 29 38 60 60 52 50 50 45 40 40 48 48 47
4 3 7 5 2 9 14 18 26 24 18 16 18 17 11 10 15 18 19 21 39 39 32 31 33 27 25 26 22 27 27 31 49 50 54 50 44 50 43 44 50 51 50
6 3 4 6 2 3 8 13 19 24 23 18 19 16 14 12 11 19 21 24 36 42 35 31 30 28 31 29 26 26 27 25 26 35 40 54 49 46 47 50 48 48 52
10 6 3 7 5 1 4 9 12 19 22 23 20 20 21 17 16 19 21 20 23 36 32 26 23 25 31 31 31 29 27 30 29 35 36 45 51 46 46 48 50 54 56
12 14 9 5 4 3 1 4 7 14 17 20 21 23 26 27 23 23 22 20 19 25 30 23 16 17 15 21 22 26 26 27 23 31 47 40 42 39 42 46 49 51 54
10 13 14 12 7 2 2 1 4 9 11 13 19 19 20 23 20 18 20 23 20 18 24 25 24 24 20 20 21 22 22 20 21 23 25 28 37 45 37 37 38 35 39
9 11 12 14 14 11 7 5 4 7 9 11 12 14 14 15 17 16 14 13 12 14 14 14 11 13 10 13 16 21 25 24 23 16 17 19 21 23 31 35 39 39 40
10 9 11 11 12 12 12 11 9 9 10 11 10 11 11 12 13 13 11 9 10 13 13 14 13 12 13 14 16 17 20 21 17 21 25 25 28 34 35 38 41 45 49
8 7 9 10 10 10 9 9 9 8 7 8 10 11 10 13 12 13 14 13 12 13 16 17 17 18 16 18 18 19 20 24 26 29 26 33 36 37 39 42 45 51 57
10 7 5 7 7 8 9 8 6 5 5 4 3 6 10 11 11 10 12 15 16 18 17 18 18 20 21 22 25 24 24 26 29 30 33 34 39 44 49 54 57 55 55
11 11 8 4 2 3 5 6 5 5 3 2 1 3 5 8 11 12 17 17 17 18 20 23 25 27 28 27 28 30 34 37 37 38 42 45 46 45 45 46 48 49 49
9 10 11 11 7 3 4 1 3 4 3 2 2 5 6 9 9 11 12 14 17 21 24 26 27 30 32 34 34 37 38 41 42 43 41 40 38 38 39 41 43 44 47
6 8 10 10 10 8 6 5 4 3 4 4 2 2 6 11 13 14 14 15 15 17 18 20 22 24 26 27 29 29 28 29 31 32 34 34 34 35 37 38 40 44 48
5 4 8 11 12 11 10 9 9 8 7 6 6 7 8 8 9 12 14 15 17 16 16 15 16 17 19 21 21 22 22 24 26 29 32 34 35 37 39 43 47 49 53
10 8 11 14 13 13 13 11 9 10 10 10 10 10 11 11 12 12 12 13 15 16 17 17 19 19 20 23 24 24 26 28 29 32 35 38 41 43 46 50 54 55 58
14 13 14 17 13 13 14 14 13 12 13 12 11 12 13 14 15 17 18 18 19 21 22 21 22 22 21 23 27 31 33 35 37 40 42 44 46 49 51 52 55 56 59
22 21 21 17 9 11 13 15 16 16 17 16 15 15 15 15 16 18 20 22 23 24 26 29 30 31 33 35 36 36 38 40 42 43 46 48 50 53 57 59 61 63 61
30 28 26 20 14 12 15 19 20 20 20 19 19 19 15 12 13 15 17 18 19 21 25 29 32 35 38 40 42 44 46 46 46 47 47 51 55 57 60 59 63 62 62
33 37 30 23 21 20 24 26 28 26 25 24 21 21 21 17 17 18 18 22 25 27 27 26 28 31 34 38 41 45 46 48 50 52 54 54 56 57 59 60 62 64 65
35 35 26 27 29 29 28 29 31 32 28 25 24 25 25 26 26 27 27 29 31 31 31 31 30 29 33 38 40 40 39 42 45 47 50 50 49 53 55 58 61 55 62
36 34 38 33 34 39 44 34 37 39 32 31 30 30 31 30 30 31 32 31 35 33 32 31 32 33 39 44 43 39 39 39 44 50 52 45 40 52 50 55 58 58 64
42 37 43 41 40 42 48 48 44 46 51 38 38 35 35 38 38 38 38 41 42 40 40 40 42 47 51 52 54 55 57 57 58 57 60 61 56 53 53 57 61 62 66

GFSGL_250_spd_003.txt.gz
Wind_Speed
8 4 8 15 29 30 17 19 18 15 14 14 13 13 13 16 17 21 24 24 26 28 27 27 35 42 47 56 63 65 65 72 50 68 63 64 60 64 64 62 60 58 55
4 6 5 16 20 25 22 17 17 17 18 16 13 13 15 17 19 21 23 26 30 30 28 25 33 42 46 56 64 66 62 62 63 66 66 60 66 61 62 63 56 58 65
3 6 3 12 16 22 30 12 15 19 19 17 12 10 13 14 19 24 25 25 27 26 23 24 31 43 43 48 57 64 59 65 55 63 65 53 60 62 58 57 48 50 52
4 9 3 4 10 18 25 20 12 16 21 17 13 11 12 15 18 29 29 27 22 26 27 27 31 38 46 50 49 46 47 56 53 54 56 55 47 56 48 52 47 39 42
4 12 6 2 3 11 17 25 14 13 16 18 13 12 14 20 15 27 32 27 23 21 25 26 29 31 39 39 41 43 47 50 56 61 44 55 46 41 44 46 48 43 45
3 8 9 6 2 6 10 18 23 17 18 14 10 11 13 19 22 22 37 30 24 25 24 27 26 22 24 31 39 48 41 49 49 50 46 48 48 45 44 48 45 41 43
0 4 8 8 5 4 5 11 20 20 18 16 14 13 11 20 24 28 40 35 24 21 23 23 20 16 16 17 23 40 44 40 45 44 40 41 45 50 51 48 48 46 47
6 2 5 6 5 3 2 7 14 20 20 17 20 19 15 19 25 26 31 36 32 25 27 26 23 16 15 15 13 16 22 30 40 48 44 43 42 41 42 46 46 49 52
10 8 3 6 6 2 1 5 11 17 22 19 20 22 23 24 23 24 29 31 31 28 21 21 16 19 24 22 19 21 19 18 20 27 47 47 40 44 35 46 55 52 55
10 11 10 6 5 6 4 4 6 13 18 20 24 26 28 27 25 27 25 30 31 25 24 20 19 21 28 29 23 28 26 26 25 27 24 37 39 36 34 30 28 33 43
10 9 9 11 13 12 8 5 6 11 15 17 21 21 26 25 26 27 26 23 24 26 26 21 18 16 16 22 22 21 21 21 23 23 23 21 23 26 29 28 30 33 36
10 11 11 9 9 13 13 10 9 11 11 12 16 20 20 22 23 22 21 21 23 25 23 20 15 22 21 22 25 24 24 26 26 27 28 30 28 29 29 30 34 37 42
14 9 10 11 10 8 9 12 11 10 10 9 11 13 18 17 18 17 17 17 16 15 16 16 16 18 18 18 19 20 20 21 21 23 22 24 27 29 33 37 41 45 48
15 16 11 9 9 10 10 9 8 9 9 10 11 10 10 13 13 13 15 16 17 18 14 13 13 12 15 15 16 19 21 22 24 25 26 28 32 35 36 38 43 48 51
11 14 18 16 9 8 9 10 9 8 6 6 8 10 13 14 13 13 14 15 15 16 17 17 18 18 17 16 17 19 22 25 28 30 35 39 42 45 46 46 47 49 49
9 11 14 16 16 13 11 6 8 8 7 5 2 3 5 6 8 11 13 15 17 17 17 18 19 21 22 25 26 27 31 33 34 35 36 37 39 41 42 42 43 43 44
2 7 10 13 13 12 13 13 10 8 8 7 6 5 3 4 5 6 7 9 10 10 11 14 17 20 22 25 27 28 30 33 33 33 33 34 36 37 39 41 42 44 47
5 3 5 7 9 10 10 9 10 10 10 10 7 7 5 5 4 6 8 10 10 11 11 12 12 13 15 17 17 19 22 24 27 30 32 36 39 40 41 44 47 49 50
10 9 3 4 5 3 7 7 7 7 8 9 9 9 8 7 6 5 5 7 8 9 9 11 13 15 17 19 21 22 24 26 30 34 36 39 42 45 48 49 51 52 53
18 16 11 3 6 3 2 5 6 6 8 8 8 7 7 7 7 7 8 10 11 13 14 16 17 18 20 22 24 27 30 33 36 39 41 44 46 47 49 52 54 57 60
24 22 18 12 7 5 5 0 6 8 10 12 12 12 10 7 7 5 5 5 7 9 12 15 18 20 22 23 22 21 24 30 35 38 42 45 47 48 49 52 56 59 62
27 28 26 20 16 12 14 8 4 5 11 17 15 15 13 9 7 6 5 4 4 7 11 13 14 16 17 20 19 22 29 33 38 39 40 43 43 47 49 52 55 57 60
32 32 32 30 30 24 21 22 16 15 15 16 16 15 16 19 14 12 11 9 10 12 15 17 13 14 16 17 24 36 35 40 42 38 46 53 51 50 52 52 55 58 59
37 38 37 32 32 36 33 31 27 24 19 16 21 24 18 18 22 23 19 18 20 22 22 23 25 29 29 33 38 42 48 50 49 54 60 57 53 53 56 59 59 63 60
41 39 38 37 38 37 36 38 36 31 25 27 28 24 28 28 23 24 28 29 30 33 34 36 40 41 42 45 51 51 48 48 54 59 60 60 57 57 62 66 69 65 63
39 38 38 38 34 34 37 40 35 34 33 33 35 35 36 33 32 28 28 33 33 34 38 42 45 47 48 45 48 45 45 55 58 62 61 58 58 65 68 71 66 58 52

GFSGL_250_spd_006.txt.gz
Wind_Speed
18 6 4 7 18 23 14 16 9 5 9 11 11 12 14 15 16 16 16 17 15 15 14 24 30 36 53 67 67 59 55 50 66 64 58 67 60 51 50 50 52 50 62
15 9 3 5 14 21 13 11 10 7 9 11 11 15 15 17 19 26 23 19 14 17 18 27 35 52 63 73 61 55 52 50 62 59 56 63 58 59 61 54 47 54 51
11 12 7 4 11 17 13 7 9 9 9 9 12 15 15 19 20 23 23 24 21 21 21 26 47 68 65 63 60 54 49 49 61 52 60 57 56 53 58 50 50 53 48
6 11 9 6 8 13 19 4 7 11 9 8 8 15 18 18 24 20 25 21 21 21 25 31 42 56 58 60 56 56 44 49 50 44 48 48 49 54 53 53 54 54 49
8 11 10 7 5 9 15 11 3 5 6 6 7 15 20 24 28 22 22 22 21 22 29 33 44 57 55 56 60 59 45 43 50 47 42 36 32 36 50 52 50 54 55
8 8 13 14 10 8 8 13 4 6 3 6 9 13 22 26 32 27 21 21 23 23 28 34 40 48 49 54 51 53 45 45 48 38 47 42 42 35 34 52 51 51 50
8 5 6 11 12 7 6 9 10 8 6 9 10 12 20 25 35 29 23 24 26 24 26 30 33 36 45 47 43 50 50 46 35 41 32 46 49 43 38 38 45 51 55
9 3 4 5 8 6 3 6 10 10 8 9 8 14 20 27 31 34 25 25 27 28 24 25 29 35 37 39 41 38 37 43 44 45 43 43 43 42 49 45 45 54 53
12 5 1 4 5 5 1 3 7 11 9 7 11 16 20 25 30 38 30 26 25 27 22 19 21 23 28 32 34 36 36 35 38 41 43 44 42 49 52 52 52 50 54
12 11 9 2 3 7 7 4 4 9 10 13 15 20 20 23 28 38 32 26 25 25 28 22 14 18 18 18 20 26 42 40 36 35 38 41 41 43 43 44 45 48 54
13 12 10 8 3 5 8 7 7 8 12 16 17 19 20 23 24 28 35 26 23 22 20 19 20 20 22 21 21 21 22 26 25 26 24 29 35 37 40 43 41 40 43
12 13 12 9 8 6 6 8 10 9 10 15 17 20 19 22 24 25 31 29 24 20 20 20 18 19 20 26 26 24 27 29 27 26 30 31 31 30 33 35 40 44 49
16 12 11 12 11 9 7 6 10 12 9 11 15 19 20 18 18 20 21 27 29 26 24 22 17 17 17 18 19 23 24 26 26 27 29 32 31 29 27 31 36 38 43
16 17 12 11 12 13 10 8 6 5 9 10 10 13 19 21 19 18 17 19 20 19 19 17 13 17 21 23 23 25 28 30 28 24 23 25 28 32 35 37 39 42 45
12 14 16 14 13 9 8 10 9 5 5 7 11 12 11 12 15 16 15 16 16 16 15 13 12 12 12 13 15 17 17 19 21 23 27 30 33 36 40 45 49 51 53
10 12 11 12 14 15 14 10 9 8 8 6 4 7 11 14 14 15 15 14 14 15 15 14 15 16 19 21 23 24 26 28 31 32 34 38 42 43 44 45 45 46 47
6 7 9 9 10 10 11 12 13 12 9 7 6 6 6 7 10 13 17 19 20 19 19 19 20 22 24 26 27 28 30 31 31 31 32 33 34 34 36 39 43 46 50
10 7 4 5 5 6 7 8 8 8 8 9 9 6 5 5 5 6 9 11 12 13 14 14 14 15 16 16 15 15 16 17 20 23 25 29 34 38 42 46 48 50 52
13 13 8 5 4 3 2 2 4 6 6 6 6 6 4 2 3 5 6 7 8 8 9 9 9 10 11 13 14 15 17 19 22 26 30 33 34 37 40 43 47 51 53
19 17 15 12 6 7 6 4 2 1 2 5 6 7 8 7 2 3 5 7 7 8 9 10 12 13 15 17 19 20 21 18 18 25 29 33 36 38 40 48 54 53 53
24 22 22 22 18 12 9 8 7 4 3 5 6 6 7 9 9 6 4 4 5 5 6 7 9 10 11 13 12 11 14 12 32 37 41 44 42 43 48 55 50 51 51
29 26 27 26 25 23 17 14 11 10 7 0 5 6 5 6 9 8 7 5 4 5 5 6 12 15 15 15 16 18 23 33 39 42 45 48 46 51 52 55 52 50 49
35 33 29 32 31 29 24 23 22 19 15 11 8 8 7 12 11 9 10 13 13 12 12 10 10 15 17 21 25 27 30 33 37 45 49 48 56 51 49 55 56 52 56
43 40 35 31 34 38 38 35 31 28 29 29 21 17 15 15 16 14 13 15 18 20 22 24 24 23 26 31 34 34 32 34 39 47 45 51 55 51 52 55 54 54 59
45 45 41 38 32 38 39 40 37 37 38 38 35 28 26 26 23 20 18 18 20 21 21 24 26 26 25 28 31 32 31 38 44 53 49 56 61 54 54 57 56 58 59
45 44 43 41 36 38 39 43 44 40 36 40 37 36 35 37 36 34 29 27 29 29 31 33 33 34 35 31 30 30 35 41 47 52 52 56 66 55 57 58 57 55 57

GFSGL_250_spd_009.txt.gz
Wind_Speed
17 19 13 11 13 20 29 19 16 9 6 3 5 9 11 16 20 16 13 13 13 13 16 23 29 33 28 30 32 35 45 49 62 62 53 49 47 45 46 46 47 45 43
16 16 13 7 11 17 26 17 16 9 5 2 8 11 14 25 19 13 12 12 14 17 20 33 47 47 39 39 43 44 52 58 59 58 45 47 39 38 42 42 38 37 40
14 13 13 8 10 14 21 16 14 9 4 4 9 12 16 19 16 16 15 16 21 24 30 59 52 51 52 47 42 47 50 59 49 47 43 42 37 38 41 43 40 37 39
11 10 14 12 10 12 19 18 11 10 4 2 7 11 15 16 23 18 15 16 22 22 70 59 58 55 53 48 44 45 47 36 32 39 40 38 36 34 41 39 37 35 38
9 9 15 13 9 10 16 17 14 12 8 2 8 14 22 22 22 17 13 17 22 40 63 54 56 52 45 42 46 48 48 43 32 31 33 36 26 29 30 44 39 37 38
9 7 13 15 11 14 13 18 19 14 8 5 8 17 27 23 21 20 16 15 23 51 60 51 51 46 45 41 46 42 43 44 34 32 34 26 23 24 26 33 34 43 38
9 7 7 10 8 8 9 14 17 12 2 6 8 19 32 27 25 20 20 18 20 53 53 51 46 45 45 38 39 40 40 39 34 36 38 32 23 28 28 27 38 40 39
11 7 5 5 4 3 6 11 14 8 6 1 4 15 33 31 26 22 22 17 21 37 45 43 38 41 41 38 39 41 43 47 36 27 32 37 37 33 32 28 31 39 42
12 9 2 5 6 3 4 5 9 8 5 5 5 13 26 29 27 22 22 22 21 25 34 35 41 38 31 40 34 39 36 33 36 35 32 29 28 35 31 37 37 36 38
10 10 7 1 6 7 6 1 5 7 5 3 6 13 19 33 30 24 27 27 21 20 19 25 29 31 36 40 32 34 37 39 35 38 33 31 34 39 44 42 42 49 55
10 8 8 9 2 5 9 4 2 6 7 7 8 12 15 24 31 27 24 28 25 18 19 20 18 26 36 32 32 32 32 31 36 32 37 40 39 39 40 43 46 50 51
9 10 9 9 8 5 8 8 6 5 8 8 9 10 15 19 31 28 25 24 21 21 23 15 15 20 19 15 17 18 20 29 33 31 34 33 36 36 34 37 42 42 44
9 10 12 11 10 10 6 7 8 6 6 6 11 14 15 20 26 30 23 21 17 18 13 14 19 19 20 21 22 21 21 24 26 31 32 32 34 36 40 43 44 47 46
13 10 10 9 10 10 9 7 7 7 6 6 5 14 15 13 22 31 29 21 21 20 20 20 17 18 15 16 21 27 28 28 28 30 32 34 35 38 39 36 35 36 40
10 14 12 12 10 8 9 7 7 6 6 6 7 8 11 14 17 18 21 24 27 24 22 22 21 21 20 24 25 24 26 27 30 33 33 28 25 28 33 34 41 48 50
3 9 11 13 16 13 10 8 7 7 7 7 8 9 10 11 14 14 14 17 20 22 22 22 20 16 15 15 15 15 17 18 21 25 28 29 32 36 40 42 43 41 43
3 2 5 7 9 10 11 12 12 9 6 6 7 9 10 13 14 14 15 15 17 18 17 18 17 16 16 17 18 19 21 23 26 28 32 33 32 31 31 34 35 36 39
9 7 4 1 3 5 6 7 7 8 9 9 5 5 7 8 9 10 15 18 19 19 20 20 20 20 21 22 23 24 23 21 18 18 17 16 22 28 33 35 36 42 45
14 12 10 6 5 2 1 2 4 6 7 9 9 7 4 3 6 8 10 13 15 17 17 18 18 17 15 13 14 15 16 16 11 9 23 32 34 34 36 36 41 47 48
18 17 14 14 10 9 7 4 2 3 1 1 2 3 4 4 2 0 3 8 10 11 11 12 13 13 15 16 15 14 12 9 6 19 17 28 38 37 34 35 43 44 45
24 22 20 19 17 16 14 11 8 7 5 4 3 2 4 5 3 1 2 3 5 7 9 9 8 9 10 11 8 5 6 10 12 17 18 29 29 36 45 46 49 42 49
31 27 26 22 22 23 20 18 17 14 11 7 4 5 10 6 3 2 2 4 5 5 6 7 6 6 7 5 9 13 14 14 14 17 16 29 35 40 46 49 59 64 51
38 35 30 28 26 27 27 25 22 19 17 18 15 12 7 8 4 3 5 6 8 11 11 11 11 12 17 18 20 20 24 26 25 23 25 40 50 47 50 52 58 62 62
45 41 38 35 32 28 30 33 31 27 26 25 27 27 27 26 21 16 11 8 8 11 15 18 20 21 21 22 24 25 26 26 28 32 35 45 48 51 54 54 62 65 62
44 45 45 44 41 37 33 31 35 39 38 36 36 33 34 34 31 29 23 21 17 17 17 16 19 23 23 20 22 26 26 32 38 38 44 43 45 49 56 58 58 65 68
42 44 46 48 48 45 42 41 38 38 40 40 39 39 38 41 39 34 35 33 33 32 31 31 28 29 31 33 40 38 38 44 39 45 48 47 48 53 54 62 63 69 71

GFSGL_250_spd_012.txt.gz
Wind_Speed
32 25 24 16 10 11 19 29 21 22 19 10 6 11 18 15 15 16 10 11 14 19 32 31 29 29 28 27 22 20 23 23 27 30 37 48 48 43 42 40 32 37 53
23 20 19 10 5 10 18 25 21 19 17 7 5 17 13 11 9 14 13 20 27 29 32 32 32 34 26 24 25 25 30 43 41 43 49 53 41 38 35 39 35 34 35
19 18 15 7 6 7 15 20 21 18 16 6 4 12 14 15 17 18 24 25 35 37 37 35 37 37 33 32 34 37 46 43 41 42 46 42 38 34 32 31 28 27 31
18 16 10 9 8 7 11 17 22 21 13 10 7 11 13 16 14 15 18 30 47 42 48 44 40 39 38 39 42 45 45 41 41 43 40 37 33 28 27 27 28 28 26
17 13 9 10 10 8 11 15 20 21 13 7 5 15 19 16 10 14 24 53 48 54 40 40 36 33 36 38 47 40 34 37 34 39 34 30 33 32 30 30 30 29 29
14 9 4 8 9 10 12 12 18 20 9 1 7 22 18 18 13 19 47 54 54 37 41 43 37 39 36 37 44 37 31 33 34 33 29 29 25 26 30 30 30 28 25
11 7 2 3 5 6 7 10 16 16 12 3 7 24 22 19 19 23 51 47 48 34 39 41 40 42 38 40 34 34 29 30 31 30 26 24 22 23 22 23 21 21 20
8 7 1 1 4 4 5 8 13 14 12 5 5 23 25 23 19 24 43 36 33 36 37 41 38 39 39 37 34 29 27 27 27 25 24 19 17 17 10 13 16 19 24
7 10 4 4 6 6 1 6 8 9 8 8 6 23 26 25 22 19 27 29 33 36 40 30 35 28 31 34 30 29 29 21 22 23 22 22 18 19 19 18 22 22 26
6 8 10 5 4 5 3 4 6 9 1 4 7 24 25 25 24 19 18 25 30 35 36 30 31 24 21 23 26 26 21 22 23 21 15 19 19 22 22 23 25 30 36
5 8 9 9 5 3 5 4 7 9 10 6 8 18 26 25 22 23 23 21 29 24 29 26 24 32 23 27 24 26 21 25 26 24 27 27 29 31 32 35 40 44 44
4 8 9 9 8 6 4 3 8 10 8 5 8 11 23 25 24 26 23 22 25 21 23 29 26 27 28 27 25 27 28 28 32 34 39 39 39 39 42 47 47 44 46
4 8 10 9 10 8 5 4 7 8 6 4 5 9 17 31 24 24 24 24 18 19 18 17 17 21 27 28 22 23 22 24 27 26 26 28 29 32 38 39 42 43 43
4 5 6 8 9 10 8 6 7 7 7 6 5 8 10 21 24 18 20 21 18 18 18 14 12 15 15 17 19 19 19 18 20 20 23 27 29 32 37 38 40 36 37
6 7 7 7 9 10 10 7 5 5 6 7 5 8 9 13 24 22 19 17 13 17 14 13 14 13 15 19 22 21 23 24 24 24 25 29 29 25 26 31 36 40 40
2 6 9 11 10 8 9 9 7 5 5 7 7 8 8 7 11 19 23 20 17 18 19 17 16 18 18 19 21 20 21 19 17 17 18 21 24 27 28 24 26 31 33
3 2 6 5 8 11 11 9 7 6 5 3 4 8 9 8 9 10 11 12 15 18 23 25 21 21 20 17 15 15 16 16 15 16 20 16 8 11 19 22 25 28 29
6 4 4 6 6 6 6 7 8 8 7 5 3 1 4 7 10 12 12 12 12 14 16 17 16 15 15 15 16 17 17 17 13 5 5 4 8 15 18 21 25 33 39
10 6 6 5 4 5 7 4 6 8 7 8 8 6 3 2 5 7 9 11 13 15 16 16 15 15 15 15 14 12 9 7 7 10 1 2 5 20 38 34 42 31 42
17 13 11 9 7 5 4 6 4 2 1 0 1 3 6 6 4 3 6 7 9 10 11 11 12 11 11 10 8 4 4 9 9 4 4 4 12 23 34 36 38 34 36
25 21 18 14 11 10 9 8 5 4 6 5 4 3 3 4 6 6 4 2 2 3 4 5 5 3 4 5 4 7 1 3 7 11 16 17 19 26 35 40 41 43 47
32 27 23 21 19 16 15 14 11 7 4 6 3 1 7 5 6 5 5 3 2 3 1 2 2 2 3 2 3 7 9 13 12 14 18 21 27 28 36 32 45 42 48
36 35 30 27 26 24 21 20 18 15 10 12 9 7 8 7 11 8 8 11 9 9 6 5 5 7 9 12 12 10 12 14 15 16 25 25 29 37 42 41 42 46 50
45 43 40 37 33 31 30 28 25 23 22 19 22 22 21 20 21 19 19 16 11 12 14 12 12 14 14 13 14 15 13 20 26 24 30 32 37 37 47 44 41 48 55
52 50 48 46 43 38 37 34 31 31 31 30 31 29 29 27 27 26 24 22 24 23 20 18 20 20 19 19 23 26 28 28 27 31 31 33 42 44 49 50 53 54 58
53 52 52 50 49 45 45 44 42 39 37 37 34 34 34 37 35 31 29 31 29 26 28 27 30 29 27 28 29 33 34 36 39 42 39 40 47 51 53 53 56 56 60

GFSGL_250_spd_015.txt.gz
Wind_Speed
26 28 24 19 21 11 7 12 20 16 17 11 6 4 10 14 12 9 5 12 19 20 23 27 23 19 24 22 25 22 19 22 20 17 20 27 26 25 25 23 24 29 25
25 22 17 17 14 5 6 11 17 19 16 12 4 4 13 12 7 7 8 20 22 21 20 23 21 24 16 16 21 22 26 27 27 28 41 40 38 39 39 34 30 24 27
21 15 15 16 11 6 6 11 14 16 13 6 5 7 10 11 9 13 23 25 22 20 26 26 24 21 21 28 29 30 32 33 43 49 45 42 43 38 37 34 29 26 29
17 13 16 13 9 9 8 10 13 16 11 4 4 7 5 8 13 15 24 23 23 31 30 28 30 30 32 37 34 31 33 44 49 44 43 35 39 34 30 30 25 26 25
16 16 16 10 9 9 6 10 14 18 4 5 8 11 4 8 9 16 25 27 31 34 29 28 33 40 39 37 33 35 37 38 37 34 32 31 30 33 30 26 24 21 20
17 18 14 7 9 9 7 8 13 15 7 10 14 17 7 12 13 30 34 35 30 27 26 31 39 42 38 34 32 33 36 36 37 31 29 28 24 25 27 26 23 20 19
17 16 10 5 5 3 1 7 10 13 11 7 20 18 12 12 20 37 38 26 25 26 25 27 35 34 33 31 29 25 26 29 29 29 29 24 27 21 19 23 25 22 17
16 11 6 4 4 4 6 7 10 10 10 8 24 20 18 16 34 43 28 21 22 23 27 27 28 31 24 24 22 23 21 20 18 17 15 13 14 17 15 13 10 10 12
14 9 4 3 3 7 8 8 6 7 8 7 23 22 21 21 34 38 21 24 23 25 31 25 25 27 25 21 19 18 18 17 16 16 13 10 10 7 7 7 11 14 18
12 8 5 1 2 9 8 6 7 10 10 11 24 23 24 22 33 40 27 23 24 28 30 25 20 28 26 23 18 14 13 13 14 13 11 9 8 9 10 13 17 24 28
10 6 6 5 7 13 9 8 9 10 11 11 18 24 26 23 27 32 24 26 23 27 30 22 13 21 21 17 19 12 12 9 7 13 13 13 15 20 19 25 28 33 36
9 6 7 8 9 12 10 10 9 10 13 13 17 27 24 21 18 21 20 22 22 24 27 19 15 12 14 20 16 15 12 12 14 17 21 23 26 28 28 31 30 28 34
6 7 9 10 8 8 9 8 8 7 11 13 14 29 21 21 19 18 20 21 22 25 27 21 21 17 16 19 17 18 17 21 22 23 22 23 22 22 26 28 29 34 36
7 5 7 10 10 9 10 8 6 10 14 15 14 16 24 22 21 21 18 18 15 15 20 23 24 21 20 20 22 23 21 15 15 16 17 18 18 23 26 27 26 29 32
12 12 8 8 10 10 10 9 6 5 8 12 12 13 15 26 19 19 21 18 15 15 17 15 12 12 12 12 12 13 14 17 18 19 21 21 21 22 20 21 21 20 21
9 12 13 11 8 9 9 10 10 8 7 7 9 10 12 17 22 16 15 14 14 14 17 17 14 14 11 9 12 16 17 19 18 18 17 16 15 15 10 6 11 9 18
6 9 12 9 10 11 11 10 9 9 9 6 6 7 8 9 14 18 21 20 16 14 16 16 15 14 15 17 17 16 13 11 11 10 10 13 9 6 11 9 15 8 27
4 4 7 9 10 9 8 9 10 11 10 10 8 6 5 6 7 9 9 11 12 12 13 18 17 15 12 10 11 11 13 13 14 11 9 8 11 10 16 19 23 20 30
7 5 5 5 6 7 8 7 8 9 10 9 7 6 7 5 5 7 8 9 11 11 11 11 12 12 13 13 12 10 7 6 6 10 14 13 10 7 9 19 27 23 30
14 11 8 6 6 5 7 9 6 3 4 4 3 4 3 3 5 5 3 3 4 6 7 8 8 8 8 7 6 7 9 12 14 20 16 13 15 16 19 21 28 28 30
23 18 14 11 8 7 6 4 6 6 3 1 2 1 2 1 2 3 3 3 3 4 3 3 5 6 7 8 9 7 8 5 5 3 3 2 9 13 21 26 28 32 35
27 26 22 18 16 13 11 9 6 5 3 6 4 4 6 9 9 8 8 7 3 3 6 7 9 7 6 10 12 6 4 5 5 4 7 12 14 18 23 27 30 36 39
37 33 29 26 23 20 19 17 14 12 10 9 10 7 12 13 6 2 3 6 6 3 3 4 7 9 8 8 8 6 8 10 12 13 16 22 24 29 33 34 36 41 44
43 43 40 36 31 30 26 23 23 21 19 17 16 16 15 17 16 14 13 12 7 9 9 8 10 11 13 14 12 10 10 14 15 19 26 27 29 33 36 36 40 44 49
51 49 46 44 40 39 35 32 30 28 28 28 26 26 23 25 26 24 24 22 20 17 16 17 19 18 19 21 23 22 21 20 21 24 27 28 29 30 32 37 41 46 51
47 50 50 50 48 47 44 41 39 38 36 35 34 33 33 32 31 30 30 28 28 27 28 27 25 28 30 31 30 29 27 27 30 30 31 32 32 34 37 41 45 48 51

GFSGL_250_spd_021.txt.gz
Wind_Speed
24 26 28 30 33 31 25 23 17 19 19 21 21 14 13 17 15 9 6 7 4 2 6 7 9 11 12 13 12 12 14 14 16 20 22 29 31 30 29 27 24 19 23
26 26 29 31 29 24 22 20 16 18 18 19 19 11 12 14 10 7 5 5 3 3 7 9 13 15 17 16 18 20 22 22 23 28 29 32 28 27 25 27 25 23 18
24 26 29 27 23 21 19 16 18 19 20 21 18 9 9 8 6 4 2 6 6 5 8 8 16 15 15 18 20 25 26 24 25 30 33 32 31 30 29 32 29 28 23
24 26 24 23 20 17 14 17 19 19 22 22 13 6 6 7 3 2 7 11 8 7 7 9 14 15 13 14 19 24 24 28 34 30 32 33 35 36 32 31 31 29 28
24 24 21 18 16 13 9 16 17 19 20 14 11 6 6 4 2 2 13 17 13 11 15 18 17 16 17 19 18 24 24 24 26 26 29 34 38 42 39 33 31 33 27
22 22 18 15 14 9 11 17 17 15 10 9 10 4 3 2 7 7 14 16 22 27 28 31 30 25 25 35 35 31 29 26 34 34 27 21 37 35 30 29 30 28 22
22 19 13 13 11 9 12 13 10 7 4 9 14 7 2 7 11 15 22 26 30 28 29 27 24 28 39 39 36 39 36 32 34 30 30 31 34 27 23 22 20 17 15
19 14 12 12 9 9 9 7 6 2 4 17 16 10 4 16 19 23 23 30 26 34 33 31 33 35 32 31 31 33 31 30 28 28 24 26 25 21 17 16 12 11 5
18 11 11 11 7 6 8 6 4 4 9 19 18 12 14 21 25 22 29 28 26 29 29 31 29 27 25 24 27 32 28 29 28 25 20 19 18 16 14 11 9 4 3
13 9 11 11 8 7 8 4 2 5 16 19 21 15 14 22 29 30 24 24 25 24 25 29 31 30 28 20 19 20 22 22 21 20 15 12 11 11 9 5 3 7 11
9 10 11 8 7 10 5 2 1 5 19 22 17 17 20 23 26 31 14 28 26 21 20 22 24 22 20 24 20 17 17 17 19 16 11 6 3 3 5 8 10 13 13
7 11 8 3 6 6 4 3 1 7 21 23 17 23 18 21 21 36 26 11 20 24 28 22 21 15 18 14 15 13 12 11 8 3 3 7 10 11 7 9 9 11 16
5 7 8 2 7 5 4 4 2 8 20 23 22 25 21 19 20 27 26 16 10 18 16 19 18 10 11 8 9 4 3 1 4 7 10 10 7 8 9 11 12 12 11
6 5 8 3 5 8 6 3 5 8 23 25 22 20 20 24 17 21 18 20 20 13 13 12 13 11 9 5 4 10 12 10 10 8 6 7 7 7 9 11 10 4 8
9 6 7 7 4 6 8 5 7 9 20 24 23 20 16 20 17 14 17 15 14 15 14 18 16 12 12 12 13 12 10 9 8 10 10 9 8 7 9 10 7 7 4
5 10 10 8 7 6 7 5 6 9 14 22 24 20 19 13 16 17 16 18 19 18 17 16 17 17 14 15 11 10 10 10 10 11 9 7 8 8 7 10 10 6 4
2 5 9 12 12 9 8 8 8 11 11 14 18 26 20 17 18 18 15 15 14 14 13 15 15 12 11 11 13 13 12 11 12 10 10 9 7 7 9 7 10 13 11
2 3 6 9 11 11 10 10 9 10 10 11 14 15 19 25 20 19 17 16 15 13 13 14 16 17 16 16 17 14 13 11 10 9 10 12 12 11 13 11 6 4 6
6 6 3 5 9 11 11 10 10 9 10 10 11 12 14 18 23 22 19 19 18 16 17 17 18 20 18 16 16 15 13 13 15 15 17 18 17 19 20 11 8 15 15
9 7 7 4 4 4 6 6 7 5 5 7 8 10 11 13 16 17 19 19 17 18 18 17 16 16 15 16 16 16 16 16 16 15 15 15 14 20 24 26 22 16 18
13 11 8 6 5 6 5 4 4 5 6 5 5 7 7 9 11 11 11 12 12 14 15 16 18 18 18 18 17 17 17 16 15 15 15 14 15 18 21 22 20 23 26
18 15 13 12 10 7 6 6 5 3 1 3 5 4 6 9 10 12 11 9 7 7 8 9 11 13 14 16 17 16 13 10 9 10 12 16 17 20 22 25 27 30 33
26 20 18 17 14 15 14 10 9 8 7 5 3 1 5 12 12 10 10 7 6 7 7 5 4 6 7 8 10 11 12 12 11 10 16 19 21 26 31 31 30 32 34
29 29 22 22 24 24 22 19 15 14 12 11 9 9 9 13 11 12 10 7 4 2 3 4 5 7 8 8 9 11 14 15 16 16 17 20 24 29 31 32 33 36 39
32 34 34 32 27 25 27 27 27 24 22 20 19 17 16 18 19 20 20 18 16 14 13 14 15 14 15 16 18 21 23 24 26 25 25 28 29 31 31 36 39 41 43
38 36 36 35 34 32 31 30 31 32 30 29 28 27 27 26 25 25 26 29 30 29 28 27 27 26 26 27 28 28 27 29 32 34 35 39 41 41 40 39 40 42 46

GFSGL_250_spd_024.txt.gz
Wind_Speed
25 28 31 32 31 32 34 30 26 25 22 18 21 24 23 18 23 21 15 9 11 9 11 11 10 9 8 8 9 11 11 16 19 21 23 25 25 25 23 22 24 25 28
25 30 32 32 33 34 29 27 24 21 16 17 21 24 19 17 18 16 9 8 7 7 9 11 12 13 16 17 17 17 16 17 17 19 22 26 29 27 25 24 24 26 25
25 29 32 33 34 29 26 25 21 15 17 18 23 22 14 14 14 8 9 5 7 6 8 9 13 16 18 22 23 24 24 23 24 25 28 32 33 29 30 26 25 26 23
25 28 31 31 29 26 25 20 14 14 16 21 22 14 8 11 9 8 9 9 9 6 6 9 13 15 17 22 23 27 28 31 33 34 33 35 35 37 37 31 26 26 21
25 27 29 29 27 24 18 13 10 15 19 21 16 8 7 4 6 12 11 10 10 9 17 20 18 18 19 21 26 30 26 26 25 27 33 35 36 36 33 26 24 16 23
22 25 27 26 23 15 9 6 9 12 13 14 6 5 3 6 11 13 17 22 19 22 26 26 25 24 25 27 32 29 23 26 31 33 21 22 30 31 29 28 23 21 27
20 24 26 21 13 8 5 5 6 8 9 2 8 2 6 17 16 21 23 24 23 31 38 39 39 41 37 32 31 31 25 28 28 28 37 34 26 26 25 22 25 22 19
21 25 21 14 9 6 4 3 3 4 2 10 8 10 26 25 20 23 27 28 27 34 37 40 40 41 38 40 41 42 39 36 33 39 35 31 25 25 24 21 18 15 13
21 21 16 11 8 4 2 2 4 3 5 12 8 21 30 27 25 29 31 33 35 35 33 34 32 32 33 33 35 35 36 37 37 34 28 25 23 21 19 17 14 12 8
20 16 13 10 6 4 2 1 4 2 16 16 9 29 31 27 27 25 31 31 30 28 29 29 28 26 25 26 31 34 33 32 28 28 26 22 18 17 13 12 7 2 2
15 13 11 7 2 2 3 1 2 6 21 15 19 31 30 27 30 29 28 26 28 27 29 27 26 27 23 21 24 20 22 24 23 22 21 16 11 8 3 4 1 6 8
12 10 8 5 4 5 2 3 4 14 19 12 18 31 31 22 28 27 25 29 28 28 26 23 23 25 24 23 23 22 22 20 16 14 9 5 2 1 6 3 5 5 8
10 7 7 3 3 3 2 4 4 16 19 12 18 28 29 28 19 27 21 20 20 22 16 17 19 16 18 17 15 15 12 7 7 4 1 2 2 6 5 4 6 7 8
10 6 5 3 0 2 1 3 5 17 23 20 14 26 26 27 25 18 19 12 21 19 23 21 14 13 12 9 8 6 8 4 2 3 3 8 8 8 6 7 7 7 4
8 4 3 4 3 4 3 5 7 20 25 24 16 16 21 21 32 22 21 15 19 18 15 17 16 14 12 8 6 6 7 6 7 8 9 10 9 9 8 7 8 9 13
8 7 3 3 5 7 4 6 7 17 26 23 22 14 18 23 20 22 20 19 19 18 17 18 17 16 15 12 11 13 11 10 10 10 11 9 9 8 9 10 11 14 12
8 5 6 6 4 5 7 7 6 12 23 23 23 21 16 16 18 18 19 24 21 19 17 16 17 15 15 16 15 13 11 11 12 11 13 12 13 10 11 13 17 14 15
8 7 5 5 7 7 6 6 7 6 11 19 24 23 20 19 18 18 16 18 19 17 15 13 12 14 13 12 12 14 14 14 16 15 13 13 16 13 9 13 17 12 11
6 6 7 5 7 10 11 9 7 6 6 8 10 18 25 24 19 22 21 18 17 15 15 15 16 17 16 15 16 17 17 18 15 15 14 15 16 16 13 16 16 15 10
6 4 3 5 5 6 7 10 10 9 6 5 9 9 10 16 24 24 20 21 18 18 18 17 18 19 20 24 22 21 19 16 16 17 18 17 16 17 20 24 24 22 20
11 7 2 1 4 5 7 9 11 11 9 7 4 6 10 13 14 16 17 19 20 20 19 18 19 18 17 17 16 17 18 18 17 15 15 15 14 15 17 24 26 27 26
14 12 11 8 6 5 4 3 2 3 5 6 8 7 5 6 10 12 14 14 14 14 14 13 13 14 14 15 16 16 15 14 14 13 13 14 15 14 14 16 22 27 29
21 21 17 13 13 12 11 8 6 4 4 4 3 8 10 11 11 10 10 10 10 9 8 7 7 8 9 9 10 13 14 12 11 9 10 12 14 17 21 24 27 29 32
27 25 24 23 18 16 14 12 11 9 7 7 7 6 6 15 17 17 15 14 12 10 7 4 3 5 6 8 9 8 9 14 17 16 15 17 18 21 24 27 31 35 36
33 28 28 28 28 23 20 18 18 19 18 16 14 12 11 11 15 16 17 17 16 15 13 11 11 12 12 14 15 16 18 20 23 24 25 25 27 28 31 33 34 35 38
39 35 32 31 29 31 29 26 24 23 23 24 24 23 22 21 19 19 20 22 23 23 24 25 25 24 24 25 26 27 27 28 29 30 30 32 34 34 35 38 38 37 37

GFSGL_250_spd_027.txt.gz
Wind_Speed
24 25 26 27 30 30 31 33 34 30 27 25 21 17 21 24 19 15 8 7 5 7 6 5 8 6 3 8 15 21 23 22 26 29 32 29 27 19 14 16 23 28 29
23 24 25 28 26 29 32 33 28 27 25 21 16 17 21 21 12 6 9 7 1 5 4 7 9 9 7 8 12 18 24 26 27 27 29 29 27 21 15 22 27 28 31
23 23 26 26 27 29 31 29 26 27 22 16 13 18 20 10 7 5 5 1 3 5 6 11 12 14 14 14 13 15 19 22 25 26 27 29 30 25 26 27 27 30 33
23 24 25 27 27 30 29 25 25 23 15 13 15 19 10 5 4 2 3 3 3 3 7 11 12 17 22 24 23 23 22 23 27 30 30 32 35 36 35 34 31 31 35
22 23 26 28 28 28 25 23 18 11 9 12 14 11 1 6 6 8 6 6 9 10 14 14 16 18 25 30 32 33 31 32 33 36 40 44 41 37 35 34 28 28 33
20 22 26 27 28 24 20 15 9 7 8 11 6 7 9 9 12 15 18 16 14 15 16 19 21 18 30 32 30 28 36 39 43 45 44 40 36 33 36 36 30 25 29
19 22 25 26 21 20 15 9 5 3 7 4 7 10 16 14 21 20 21 22 23 22 21 25 25 29 29 27 27 32 32 32 35 34 34 34 29 22 24 26 26 29 29
20 23 24 21 17 15 9 3 2 3 3 5 9 20 18 24 24 27 32 33 36 38 35 34 32 32 29 27 29 31 32 38 40 37 33 31 29 27 29 30 26 25 23
20 23 21 18 17 11 4 5 1 2 1 10 20 25 22 29 29 32 36 36 37 37 42 41 42 42 41 38 33 35 39 39 40 39 37 34 34 32 27 23 19 18 14
20 22 18 17 12 4 6 3 0 1 8 13 26 26 32 33 31 33 34 35 33 32 33 35 34 34 39 38 38 40 37 35 32 30 30 28 27 24 21 17 13 9 3
18 18 15 10 3 7 7 4 2 7 16 19 28 31 33 34 35 30 28 31 30 26 29 30 30 35 35 34 33 32 28 27 27 25 23 23 20 18 14 13 7 3 4
15 14 12 2 7 6 6 4 4 16 20 30 30 32 29 30 31 27 27 28 29 29 28 23 25 29 27 26 27 26 24 24 21 18 14 12 11 9 8 7 8 6 3
12 11 7 3 5 4 5 5 11 22 23 37 32 30 32 33 28 26 26 26 26 22 23 24 24 24 24 22 20 21 18 17 12 6 3 6 7 9 9 11 7 6 3
8 8 4 3 5 5 4 5 13 21 20 38 34 29 37 33 28 28 24 26 23 18 20 20 20 22 16 14 14 10 6 7 8 10 8 7 6 8 10 10 8 5 5
4 7 5 3 5 7 5 6 14 21 26 35 35 32 28 34 28 29 24 24 22 20 20 16 18 18 11 9 8 6 5 7 7 5 9 9 10 11 13 12 7 4 7
1 6 3 4 5 6 7 7 16 23 23 23 32 33 31 27 27 24 19 18 25 22 21 17 15 13 13 12 9 8 7 7 6 7 10 12 13 12 12 12 8 8 13
1 5 4 3 5 5 7 10 14 26 24 20 22 27 28 29 29 25 26 23 22 22 18 17 18 17 18 19 16 12 11 8 8 11 13 12 13 12 12 12 12 13 15
2 3 6 7 6 7 9 10 13 21 27 28 20 16 24 23 26 26 21 22 21 20 18 20 18 18 15 14 13 13 14 12 12 14 16 15 14 15 14 12 13 21 22
4 0 6 9 10 10 11 11 13 14 20 22 24 25 21 18 20 20 20 17 21 21 17 16 15 13 14 15 16 14 16 15 15 17 16 16 14 13 15 14 15 19 22
5 2 0 4 7 11 11 11 11 12 14 15 17 23 26 24 21 21 22 21 18 19 17 17 17 15 16 17 16 19 19 20 21 17 14 16 18 18 18 20 18 19 23
13 7 3 2 3 6 10 11 10 9 10 11 13 13 11 16 24 26 23 24 23 23 22 19 20 19 21 21 23 23 20 19 17 18 18 16 15 15 15 18 23 26 28
17 16 13 10 8 7 6 6 6 7 5 6 9 11 14 15 15 16 19 21 21 21 21 20 20 18 19 20 18 17 17 17 16 16 16 16 14 14 16 18 20 22 29
23 19 16 16 13 12 11 9 5 2 3 4 4 2 4 10 12 13 14 15 15 15 15 14 12 11 11 11 11 11 12 14 14 13 14 14 13 14 15 18 21 24 25
31 26 23 19 16 14 14 12 10 9 6 5 3 2 1 4 7 9 10 11 12 12 12 10 8 7 7 7 8 7 6 7 11 14 16 16 15 17 20 21 23 24 27
39 35 32 27 23 21 20 18 16 14 12 11 9 8 6 5 9 13 12 11 10 11 10 9 9 10 10 11 12 12 12 13 15 17 19 22 24 25 25 25 25 26 28
47 43 40 39 33 28 26 27 24 21 20 17 17 18 17 16 15 14 15 18 20 20 22 21 19 19 19 21 22 23 24 25 25 24 23 25 28 30 31 33 33 33 34

GFSGL_250_spd_030.txt.gz
Wind_Speed
43 37 29 31 31 30 32 34 32 33 36 34 31 29 25 22 22 18 15 11 10 8 8 9 11 12 8 7 13 18 17 19 32 29 29 28 23 20 17 19 22 27 34
26 26 25 26 28 30 33 31 31 34 33 28 28 23 18 19 19 14 10 11 9 6 5 5 7 7 5 7 12 17 19 16 20 30 32 30 26 23 18 20 21 28 32
23 24 24 26 28 30 30 29 32 30 27 27 22 17 18 19 8 7 8 7 4 5 5 0 1 2 5 8 13 18 23 20 20 27 31 31 29 22 16 20 27 31 29
24 24 27 27 28 29 29 31 29 24 24 20 16 16 16 7 8 5 4 6 5 7 9 5 3 2 5 8 18 19 22 24 27 31 32 31 30 20 22 25 30 31 34
21 25 23 26 27 28 31 28 22 21 16 15 14 12 9 8 6 3 2 7 4 7 10 11 10 12 13 12 13 18 25 27 29 33 34 30 29 30 30 30 34 35 40
17 16 22 25 26 30 27 21 18 14 13 12 10 10 11 10 9 6 5 5 7 12 14 15 18 22 22 20 19 21 22 25 27 30 33 38 43 37 32 32 35 34 36
13 18 22 23 28 25 19 17 14 11 7 3 9 11 14 16 15 11 7 5 7 11 18 22 25 29 29 29 30 31 32 35 38 42 45 45 41 39 35 38 37 32 26
14 18 20 25 26 19 16 14 11 5 2 8 9 14 18 20 21 20 18 15 16 20 23 25 28 31 32 32 35 38 40 42 41 39 37 38 39 38 29 28 26 27 28
14 17 22 25 20 17 13 11 9 4 7 8 14 17 24 23 28 25 25 25 21 24 26 25 29 34 37 36 36 34 37 39 41 37 38 38 37 38 36 34 29 26 24
12 18 22 19 16 11 10 12 7 5 16 16 21 26 27 29 32 29 33 30 30 29 26 30 40 40 39 40 41 40 40 37 37 39 40 40 35 32 30 27 24 18 14
13 17 18 14 10 9 12 9 7 13 15 25 24 29 33 33 34 30 30 29 29 28 30 33 41 38 38 36 33 33 31 30 31 31 29 29 27 25 22 19 16 13 9
13 17 12 9 5 10 8 5 8 21 19 30 31 33 37 35 32 30 28 23 26 27 29 30 32 33 33 32 29 28 27 24 23 22 19 18 17 15 14 11 7 8 10
12 15 8 5 6 8 8 5 20 20 24 32 33 34 36 32 29 27 28 28 27 26 29 24 24 26 25 25 25 24 23 21 17 13 10 11 11 11 9 9 11 12 6
9 10 5 4 8 8 9 8 23 21 29 33 34 35 35 29 28 25 25 28 22 19 18 20 21 19 19 18 18 15 13 11 7 2 3 4 8 13 13 14 14 7 7
8 7 2 3 10 9 8 14 24 21 32 34 33 35 32 27 30 23 27 24 22 25 22 19 20 18 20 16 15 7 4 1 3 6 8 7 8 7 8 10 9 9 9
7 6 0 2 10 10 10 17 24 22 34 33 31 34 34 31 33 29 27 25 21 23 19 20 18 15 12 9 10 3 5 4 6 8 8 9 9 13 15 12 11 11 12
6 6 1 5 7 10 10 18 26 25 35 34 31 31 29 32 31 26 24 25 23 24 22 21 24 22 16 14 13 13 11 8 7 7 10 11 11 13 13 11 11 12 13
4 3 1 5 7 10 11 19 28 29 26 35 33 32 33 31 29 25 24 23 25 26 24 23 19 19 19 19 20 17 12 12 12 13 13 13 14 14 15 15 15 16 18
5 2 1 4 8 10 14 17 27 30 27 24 33 34 33 32 33 32 31 28 23 23 24 23 21 21 19 17 14 13 13 15 16 14 14 15 14 14 12 15 17 19 19
9 6 4 4 6 7 11 14 22 29 30 31 29 23 31 29 30 33 31 29 28 23 25 22 21 21 17 16 19 19 18 15 15 18 21 18 14 15 16 17 18 22 22
14 11 10 8 6 5 6 9 13 17 24 30 31 32 32 30 28 27 24 24 23 20 20 22 20 21 21 20 17 18 19 21 24 20 18 17 17 16 16 17 19 22 26
17 15 13 12 12 11 9 9 8 7 9 13 17 22 29 33 34 32 29 27 28 26 25 24 24 24 23 24 22 23 24 22 18 18 17 15 15 14 13 15 17 17 18
21 19 17 16 15 15 14 12 10 10 9 8 7 8 10 13 17 22 26 29 29 29 30 28 26 25 22 21 20 18 18 18 17 15 14 14 13 11 10 10 11 14 16
30 26 23 21 19 17 16 14 12 11 10 9 10 10 9 9 10 11 13 15 16 16 16 16 15 15 14 14 14 13 12 10 10 13 14 12 12 14 14 15 17 19 19
37 35 30 27 24 22 19 20 17 14 12 9 8 8 7 6 8 9 10 11 12 12 13 13 11 7 8 7 6 6 7 8 8 9 11 14 18 21 24 27 27 26 26
46 42 39 36 32 30 25 21 21 21 20 20 17 15 13 12 11 10 11 13 14 14 15 16 15 13 14 17 18 17 17 18 19 19 20 22 24 27 28 29 30 31 33

GFSGL_250_spd_033.txt.gz
Wind_Speed
52 51 50 50 48 44 39 37 33 34 39 39 38 37 34 33 31 29 28 24 19 13 16 17 16 18 16 8 4 7 17 28 38 26 26 28 27 24 18 17 21 23 30
43 44 45 42 37 35 31 30 33 37 38 37 37 34 32 29 26 25 20 12 13 14 19 16 14 16 12 6 11 12 11 21 33 26 30 31 25 23 21 18 18 20 30
39 39 35 31 32 28 29 32 35 36 36 37 35 32 29 24 22 17 11 12 14 18 14 14 12 14 10 6 10 20 20 22 31 30 33 35 29 24 20 18 17 20 28
31 28 27 30 28 27 29 33 34 35 35 33 30 27 20 19 16 8 10 11 11 14 13 14 11 13 10 8 13 19 22 23 26 29 36 34 31 23 20 17 19 23 28
24 24 24 26 25 26 29 31 34 31 28 24 22 18 16 13 11 8 9 10 10 14 13 12 12 12 13 13 14 18 24 25 26 22 30 34 27 21 17 18 23 28 28
23 20 21 20 21 27 28 31 28 24 21 21 18 16 11 12 9 10 14 12 8 8 12 11 6 7 10 12 17 23 27 33 26 22 28 28 24 19 21 25 29 31 31
18 15 17 20 23 23 27 26 23 20 18 15 15 9 9 9 7 2 5 7 6 8 9 10 9 3 4 6 12 25 31 28 25 24 28 27 26 26 24 29 33 31 27
12 14 18 21 19 22 23 21 19 16 11 11 6 7 12 12 8 3 2 3 7 13 14 15 13 10 10 10 13 19 22 25 27 29 30 35 32 27 29 31 35 27 25
16 16 18 19 20 20 19 18 14 11 10 8 6 12 16 16 12 9 4 8 15 17 16 19 20 20 22 28 31 30 31 31 32 39 41 35 33 34 31 29 27 24 18
15 16 18 18 18 17 17 13 10 11 10 11 13 15 20 20 17 13 11 13 18 17 25 22 21 26 30 30 34 35 33 35 38 39 37 34 32 30 27 25 27 29 26
11 15 16 18 15 14 10 7 10 10 13 13 17 22 22 24 22 18 17 16 14 23 34 35 37 39 39 37 36 35 37 37 35 33 32 31 35 35 33 28 26 24 19
10 14 16 15 11 7 4 8 10 13 17 19 25 26 27 27 21 21 20 15 20 32 36 36 36 33 34 35 35 36 34 33 31 30 29 27 24 24 21 17 15 13 9
10 14 13 11 7 3 5 5 7 18 24 23 26 29 29 28 27 21 12 21 28 32 29 30 29 29 28 30 30 28 26 23 22 20 20 16 16 15 12 11 10 11 12
11 11 11 8 7 5 7 8 13 14 25 25 29 29 29 28 24 23 24 23 25 25 25 26 25 22 22 20 21 21 18 13 11 9 7 5 5 3 5 5 7 13 13
9 10 9 7 9 11 13 15 19 21 29 26 30 30 26 24 22 25 25 25 21 21 19 20 19 20 20 14 15 14 15 12 8 6 6 5 8 10 13 12 8 12 9
8 8 8 7 10 15 19 23 24 25 31 30 28 34 28 25 26 20 24 20 20 20 17 15 19 20 20 19 16 8 7 5 5 6 7 9 8 9 12 17 15 13 12
8 6 7 7 10 14 15 24 28 24 34 33 32 32 32 24 25 21 26 22 23 22 19 17 18 13 10 9 11 14 15 7 7 8 9 9 11 13 18 19 19 15 17
6 5 5 7 10 11 14 21 29 25 33 31 31 33 30 25 30 26 25 21 23 22 20 20 20 18 18 22 20 20 17 15 12 11 10 11 14 16 19 18 16 17 19
7 3 2 5 7 8 11 19 29 27 30 35 28 30 32 32 28 27 26 26 27 28 26 24 24 23 25 23 24 22 18 15 16 15 14 15 17 16 16 16 18 19 19
11 7 4 2 2 4 8 15 29 29 29 30 32 32 31 33 30 30 26 27 26 31 26 28 27 27 28 27 24 20 19 18 18 17 19 18 21 21 16 16 17 17 20
13 11 9 7 6 5 4 9 23 30 33 33 32 34 34 37 37 37 37 30 29 31 33 31 27 28 24 24 24 19 20 23 22 21 21 24 22 18 18 18 19 19 22
15 14 13 11 9 9 9 7 8 15 26 31 32 30 32 37 39 39 39 40 38 37 35 30 27 27 28 25 25 26 24 23 23 25 25 21 19 19 18 18 19 20 19
20 18 17 15 13 14 14 14 13 11 12 14 20 28 33 34 32 32 33 34 35 35 34 34 28 28 28 28 30 30 27 26 26 26 25 23 22 20 18 16 15 13 12
23 23 22 21 19 18 18 18 17 16 14 14 14 15 17 19 21 25 29 34 37 37 35 34 33 33 31 29 27 24 23 21 18 16 18 20 19 18 18 17 15 15 17
26 27 27 25 23 20 19 17 16 16 16 15 14 14 14 15 16 17 17 18 20 21 23 25 24 25 27 23 20 17 16 15 13 12 11 12 13 15 16 19 22 23 25
37 36 32 30 29 28 26 23 19 19 18 18 18 18 17 16 14 14 14 14 15 16 17 19 20 21 19 16 16 18 19 19 19 20 20 20 22 23 24 25 26 28 30

GFSGL_250_spd_036.txt.gz
Wind_Speed
68 64 60 58 56 56 55 51 47 45 42 39 39 40 41 41 43 40 38 29 28 21 17 19 17 24 17 20 16 4 14 23 32 36 34 30 24 18 18 22 21 18 18
54 55 55 53 54 52 47 41 40 41 38 38 39 39 40 41 38 36 28 24 15 12 15 17 19 19 14 12 7 2 13 27 39 35 29 24 24 20 23 21 17 15 20
49 50 51 51 49 44 40 39 39 36 35 38 39 40 40 36 33 25 18 11 14 13 16 20 20 15 13 7 5 5 13 27 43 36 34 31 25 26 24 23 19 11 15
47 46 46 45 42 37 35 35 33 31 34 37 40 37 33 28 21 16 10 13 17 14 16 17 16 16 14 7 6 15 11 26 35 34 29 31 29 27 22 19 17 13 17
43 42 39 36 33 31 33 31 30 32 34 37 33 27 22 16 13 8 13 16 17 18 17 15 16 16 15 14 14 25 20 24 33 32 29 30 28 25 24 21 18 16 22
39 34 32 28 30 29 27 26 30 32 34 30 24 19 15 14 11 9 15 15 15 19 17 12 15 16 17 16 16 26 28 28 27 27 28 32 33 32 25 20 16 22 24
27 26 26 26 23 21 23 28 29 32 28 22 17 14 11 11 10 14 16 12 14 5 8 9 11 18 20 19 13 29 33 32 26 22 19 27 31 27 16 16 22 27 30
23 23 20 17 18 20 25 28 31 27 16 9 12 3 7 5 6 12 9 7 6 8 8 8 13 15 12 10 12 30 32 27 23 18 18 25 24 18 22 25 28 29 30
19 17 16 14 18 23 26 28 25 17 6 8 3 8 10 9 9 7 6 1 6 8 6 7 2 8 3 4 10 18 26 22 20 16 24 23 23 23 28 27 25 26 27
16 14 14 17 19 24 25 23 17 8 8 5 7 12 14 12 3 4 2 7 9 6 5 7 19 20 22 21 18 16 17 21 23 25 28 26 24 28 36 30 27 23 21
12 12 12 14 18 20 19 13 6 8 7 10 11 11 13 13 10 12 9 11 12 10 10 16 21 20 26 29 32 31 31 33 33 30 27 27 28 28 30 24 20 20 21
12 12 13 14 16 11 6 5 6 4 7 8 11 17 21 18 13 13 11 11 19 21 23 23 23 23 25 27 31 33 31 30 30 28 26 25 25 25 27 26 22 19 15
14 12 11 13 12 5 1 1 2 9 13 15 21 24 22 17 14 10 12 24 29 30 30 29 28 32 34 34 32 31 31 31 30 29 28 26 24 21 18 15 14 12 11
13 11 10 11 5 4 6 4 4 8 12 18 19 26 21 21 17 13 18 28 24 26 29 29 29 29 26 26 26 24 23 21 21 19 17 16 16 15 13 10 9 10 11
11 8 9 8 1 11 10 7 12 12 18 20 23 23 25 20 20 18 21 24 20 21 23 19 20 20 21 17 14 13 11 9 8 8 7 7 7 8 7 8 11 13 16
9 6 8 8 4 14 16 17 20 20 24 24 27 24 25 21 18 19 25 22 18 18 16 13 14 17 16 16 13 12 11 5 3 4 7 8 11 13 13 12 14 16 17
7 6 7 7 4 8 20 21 25 23 28 24 26 27 24 26 19 21 24 17 20 14 15 12 12 15 17 15 13 9 3 4 7 9 10 11 13 12 13 15 17 18 16
5 5 5 6 4 3 15 19 27 26 33 28 24 30 25 26 23 24 26 20 22 18 14 15 17 15 14 11 11 11 12 15 17 14 12 10 12 14 17 16 19 21 20
4 5 5 3 3 3 10 16 26 29 26 31 26 26 31 27 22 25 25 27 27 24 20 17 19 19 17 16 15 17 20 24 24 20 18 16 16 15 17 17 19 21 23
6 6 6 2 1 2 6 11 22 28 26 31 29 29 29 32 27 26 26 27 26 25 28 26 21 20 21 23 25 27 29 24 21 18 17 17 19 19 20 24 23 21 20
8 8 7 5 2 1 3 5 16 24 23 28 32 26 28 32 33 30 27 32 31 28 29 29 31 31 29 30 30 31 27 25 21 21 24 25 23 24 25 26 23 23 25
10 8 8 8 5 5 4 6 10 21 23 25 29 29 28 27 29 32 33 32 30 27 27 29 30 31 33 33 31 30 28 24 25 26 27 27 27 29 29 26 25 24 23
12 13 12 13 10 8 7 8 12 18 28 27 26 27 27 29 29 30 28 33 34 36 37 35 35 33 32 31 28 26 26 27 30 33 32 32 33 32 28 24 22 21 16
14 13 14 12 10 10 11 11 11 13 17 21 26 30 31 33 30 30 31 31 31 32 35 36 37 37 37 37 36 34 35 36 35 32 29 27 25 25 23 20 19 18 18
22 21 18 18 17 14 13 14 13 12 12 13 15 18 20 22 25 29 30 32 34 37 39 41 41 41 40 39 39 36 32 30 28 26 23 21 19 19 19 20 20 22 25
31 28 22 21 18 19 18 17 17 19 17 15 14 13 14 15 16 16 18 20 23 24 24 24 25 25 26 27 27 26 25 24 23 23 23 23 21 21 22 22 23 26 28

GFSGL_250_spd_042.txt.gz
Wind_Speed
80 79 75 72 71 70 68 69 67 65 64 64 63 64 64 61 55 52 51 47 47 48 42 39 34 24 22 16 18 20 16 9 16 22 22 25 30 22 21 14 16 14 14
79 77 74 72 69 65 63 60 60 59 60 61 61 59 58 55 51 49 47 47 47 42 37 32 23 20 18 17 18 19 13 9 21 22 24 25 29 25 27 23 20 17 14
61 67 70 70 67 64 61 58 57 54 56 53 53 55 54 50 47 46 45 45 41 34 29 23 21 19 16 16 14 16 10 13 22 24 27 22 20 23 22 21 16 10 10
34 45 55 60 62 61 59 57 55 53 49 49 52 51 48 45 44 43 44 40 33 28 24 22 15 15 16 14 12 9 5 16 24 25 21 16 20 19 18 11 11 7 8
20 24 34 42 48 49 49 49 50 49 49 52 47 43 43 42 40 43 40 34 27 24 20 19 18 16 15 13 12 10 8 11 24 25 27 29 26 18 18 18 13 8 9
9 7 13 23 32 37 40 42 47 48 48 42 38 40 39 38 40 36 31 27 24 19 18 18 20 20 18 14 14 7 10 13 21 27 30 26 21 21 21 17 14 13 10
16 7 10 18 24 29 35 39 40 39 37 34 35 35 35 37 33 27 20 11 11 18 23 21 16 15 12 14 13 12 12 17 21 26 26 26 22 19 18 21 21 17 15
15 13 15 17 18 21 25 26 29 30 31 32 32 33 33 30 25 12 8 10 13 14 13 12 13 14 11 15 16 16 17 20 22 19 29 29 25 21 20 22 21 22 23
16 17 19 20 17 19 22 23 25 28 28 29 30 29 27 22 12 10 9 8 5 3 2 5 8 11 17 20 21 20 21 22 26 21 22 31 29 28 23 16 14 10 17
20 19 21 21 18 19 20 23 24 26 27 28 27 24 21 11 8 8 5 2 1 2 2 1 9 14 14 15 16 17 20 21 22 22 17 17 17 12 9 10 13 17 18
21 20 21 14 16 19 20 21 24 25 25 24 22 20 13 8 5 4 4 0 4 4 3 6 9 6 0 6 12 16 16 21 18 20 18 14 13 16 20 22 21 20 22
24 23 16 16 20 18 18 21 22 20 19 16 16 12 11 11 6 4 5 4 8 6 8 12 16 18 15 17 24 26 21 17 17 17 20 20 23 24 25 26 22 15 18
28 19 20 20 17 15 16 19 18 12 14 14 12 17 14 11 6 8 5 10 14 12 16 19 22 27 30 31 30 29 26 25 23 22 25 29 28 24 23 18 16 19 18
27 23 20 18 15 13 14 15 13 12 12 14 20 18 14 6 8 14 16 16 20 24 26 28 29 30 31 31 31 31 30 28 28 29 28 23 18 17 17 18 18 17 16
18 17 17 15 12 11 10 10 7 10 13 20 22 18 13 12 19 22 23 25 26 26 26 26 28 28 29 30 29 30 28 27 25 22 20 17 14 13 12 11 10 9 7
15 15 13 9 8 11 7 9 10 10 16 25 23 17 12 17 24 24 23 23 22 20 18 19 20 21 21 22 22 20 18 17 14 11 8 4 3 7 11 15 16 16 16
13 10 6 6 9 8 9 8 13 11 16 28 26 18 17 21 21 19 18 20 23 14 17 11 12 10 9 11 13 10 10 10 9 8 8 7 4 6 10 15 17 17 14
8 6 5 4 7 10 10 11 14 14 16 23 28 23 19 17 18 18 15 19 16 11 16 12 11 5 3 2 3 2 2 5 5 7 10 15 16 15 12 11 14 15 17
7 6 4 2 5 6 9 12 16 15 16 20 24 27 23 19 16 18 18 14 17 16 14 13 11 8 3 6 7 4 7 11 16 18 20 20 24 18 14 16 18 20 21
6 5 5 2 2 4 5 9 14 16 17 19 21 26 22 22 18 18 18 15 13 18 17 15 17 13 13 12 14 17 18 15 19 22 21 21 19 17 15 16 18 21 25
11 9 7 4 4 3 4 2 11 16 18 20 21 21 23 22 22 25 22 21 18 16 14 14 14 16 18 19 21 23 23 25 26 26 24 21 21 17 15 17 20 22 23
16 11 11 8 6 1 2 4 0 10 19 21 19 24 23 22 22 24 24 24 22 23 20 22 24 27 26 23 23 25 25 25 27 26 24 23 22 22 22 24 26 29 29
23 13 4 3 4 6 3 2 7 3 11 18 18 18 19 26 23 23 25 29 28 26 24 26 26 28 29 29 30 32 32 34 35 32 30 28 28 29 29 30 34 34 31
25 17 11 10 9 6 5 1 6 7 3 9 13 15 19 23 27 29 29 28 28 29 31 32 33 32 32 31 31 33 33 33 33 32 30 31 34 34 36 38 35 30 29
25 24 19 14 10 7 5 2 2 3 6 4 1 8 14 13 16 22 24 25 27 27 28 30 31 31 31 34 36 38 39 41 41 40 38 37 37 36 35 33 31 30 30
27 23 22 20 17 13 10 9 7 5 3 2 3 1 3 9 14 17 19 21 21 21 21 23 24 24 24 24 24 25 25 25 25 26 26 27 29 30 30 28 26 26 27

GFSGL_250_spd_045.txt.gz
Wind_Speed
88 86 83 78 74 72 70 68 67 66 66 67 67 64 60 58 58 60 60 58 58 52 49 50 51 46 38 30 25 22 21 19 17 13 15 18 17 18 20 16 17 7 8
86 79 76 75 75 71 67 66 64 64 62 62 60 58 57 55 55 55 55 58 51 48 48 49 45 35 27 20 22 18 19 19 9 15 15 17 15 15 18 21 14 10 14
58 61 68 70 70 69 69 68 66 64 63 61 58 57 56 54 53 52 57 49 46 47 47 44 36 24 19 20 17 15 15 11 10 16 20 17 16 17 16 16 13 14 15
33 38 41 49 56 58 60 64 64 62 63 62 59 55 52 52 51 54 47 45 46 46 42 35 28 17 18 17 16 14 10 7 14 19 21 19 16 13 15 14 14 11 9
17 16 24 31 36 42 46 50 50 51 53 53 53 50 47 49 51 45 43 43 43 40 34 26 20 17 18 17 17 13 11 9 13 17 19 19 22 17 14 15 11 9 5
16 9 8 4 15 21 27 31 37 40 41 43 43 42 45 44 40 40 41 40 35 29 24 23 20 19 19 22 20 14 11 10 13 18 17 18 17 16 11 12 15 14 8
14 5 3 2 1 10 16 21 26 30 32 35 39 39 37 34 36 38 37 33 26 19 20 21 23 23 18 16 14 12 12 9 13 18 20 21 22 21 19 13 15 13 13
11 1 3 5 6 8 9 15 20 24 29 31 31 30 31 32 34 32 27 22 18 21 21 19 17 15 14 18 17 18 16 14 17 18 22 23 22 21 18 17 17 16 16
11 8 9 9 9 10 11 16 19 23 26 25 24 29 31 31 27 23 19 18 15 12 10 10 13 15 18 19 20 21 19 19 19 23 19 22 22 23 23 20 24 25 21
21 17 12 11 13 17 17 18 17 19 19 23 28 30 28 24 18 17 16 13 7 8 8 6 10 14 19 22 22 21 17 19 19 25 18 15 17 20 24 22 13 12 15
28 21 17 15 16 21 20 14 17 21 26 27 28 25 20 14 15 14 11 6 4 2 3 9 11 12 14 16 16 17 20 20 20 21 17 11 13 10 9 9 11 13 15
24 20 12 13 16 21 19 16 22 24 24 25 21 14 10 12 14 9 5 4 4 4 3 6 6 3 2 7 12 16 21 23 18 17 15 12 12 13 16 13 11 12 15
23 20 18 23 27 25 16 21 20 20 16 14 9 9 12 16 11 6 5 7 10 10 11 16 16 16 16 21 22 21 21 19 15 15 16 20 21 20 21 15 11 11 15
25 18 18 23 23 19 19 18 16 14 11 8 11 13 15 9 7 8 12 13 15 15 20 23 26 27 25 26 27 26 24 22 22 24 25 24 23 21 16 10 13 13 13
22 24 30 28 20 17 15 14 10 7 5 10 15 16 11 7 11 15 19 23 25 26 27 29 32 33 34 36 36 33 32 29 27 22 18 16 14 12 10 11 11 11 12
24 26 25 20 17 15 12 8 7 6 8 16 20 14 11 17 20 25 28 26 25 25 23 24 27 27 28 27 27 26 25 23 21 18 15 12 8 3 2 7 8 9 11
19 19 17 15 14 11 7 7 8 7 10 20 17 13 18 20 23 25 24 20 20 19 20 19 16 15 16 16 15 19 19 17 15 13 13 13 11 6 5 7 11 15 17
15 15 13 12 9 6 5 8 11 11 18 21 17 13 18 22 19 18 19 18 12 15 15 12 10 8 6 6 6 10 10 10 9 8 8 8 8 9 7 11 13 14 15
10 11 9 7 6 2 2 7 13 15 20 25 22 17 21 22 21 19 17 19 13 14 11 9 7 7 2 1 4 4 2 6 7 10 12 13 13 11 12 10 13 15 16
7 6 4 4 2 2 3 6 15 18 21 30 28 25 22 22 20 19 18 17 15 15 14 12 11 9 10 8 6 8 11 11 12 13 17 19 18 16 15 14 14 16 17
7 8 3 9 4 1 3 3 10 18 20 24 26 30 26 22 18 16 16 17 16 15 16 15 13 12 14 14 16 18 19 20 22 24 23 23 22 20 21 21 18 21 23
9 7 7 11 3 2 5 6 2 11 19 24 26 25 26 25 22 23 20 21 19 18 17 17 18 16 15 21 24 23 24 28 29 27 28 27 26 26 25 24 24 25 27
5 9 11 8 6 4 3 3 4 7 15 22 26 23 24 25 21 22 22 26 27 24 22 23 24 24 25 27 27 29 30 30 30 29 29 29 28 25 24 25 29 31 33
11 17 17 12 8 5 4 4 3 6 10 18 26 22 22 27 26 25 24 22 23 27 28 27 28 29 29 30 31 30 30 30 29 31 33 33 34 33 34 35 36 35 36
18 22 20 15 10 8 6 6 6 9 12 12 8 11 14 17 15 19 22 21 23 25 24 24 25 25 26 27 28 31 33 35 33 31 29 28 27 26 27 29 30 30 30
25 22 19 17 14 12 9 6 6 7 6 6 6 6 5 6 11 13 15 17 18 20 22 23 23 23 22 22 22 21 20 19 20 20 21 21 21 21 21 21 23 25 27

GFSGL_250_spd_048.txt.gz
Wind_Speed
98 95 92 89 87 82 79 77 75 72 69 67 64 62 62 59 55 55 56 56 56 57 58 59 56 50 49 49 41 29 25 28 29 24 14 9 25 21 19 24 13 11 8
96 92 90 87 82 79 76 73 73 69 69 66 63 60 57 53 52 53 55 54 58 57 57 58 51 47 48 38 30 22 22 22 22 11 8 15 22 25 21 19 13 14 7
94 91 86 80 76 74 75 74 72 68 66 66 64 60 56 56 54 56 57 57 56 54 56 50 49 47 37 29 23 19 19 18 15 6 10 17 14 13 14 13 14 14 12
80 78 72 68 65 65 67 69 68 64 63 62 60 58 57 54 56 56 55 53 51 52 48 46 47 40 28 22 17 19 14 16 11 9 12 13 14 14 11 13 16 11 8
48 42 43 42 44 46 49 51 51 53 54 56 56 56 54 52 51 49 47 46 48 45 43 45 41 32 25 18 19 18 16 15 11 12 11 15 15 14 16 14 11 7 7
37 31 32 30 31 32 33 35 40 44 46 47 48 46 45 43 41 40 41 43 39 41 44 39 35 29 23 17 18 21 18 17 13 11 10 15 17 18 13 15 14 11 9
33 31 28 24 19 17 16 23 27 31 33 34 35 34 33 32 32 37 37 34 38 42 37 30 27 23 20 21 21 16 15 14 13 10 12 14 17 21 16 12 8 12 11
42 36 29 22 18 13 9 9 13 14 19 23 24 26 25 27 31 30 31 35 36 32 28 26 25 23 21 19 16 16 17 15 13 14 14 14 15 13 14 14 14 12 12
42 34 28 23 16 7 2 3 10 18 18 18 18 19 21 24 25 28 33 32 28 25 21 18 18 18 20 23 22 18 20 19 18 15 15 16 17 16 18 20 18 17 17
41 34 26 21 15 5 6 8 10 12 12 13 15 18 20 22 27 31 27 22 20 18 17 19 17 16 18 21 21 23 24 24 22 20 19 18 18 17 18 20 21 24 25
39 32 26 21 14 12 11 10 15 13 11 13 16 20 23 27 28 22 17 16 14 14 13 14 19 21 23 25 28 27 22 29 24 21 21 16 11 12 15 19 17 15 15
37 33 26 22 11 6 9 15 16 12 14 19 24 26 26 23 17 14 12 10 9 7 6 10 14 15 15 18 21 23 22 23 21 19 21 13 10 10 7 6 6 7 9
30 21 14 10 11 13 15 18 12 14 19 21 20 18 15 12 11 11 7 8 8 4 4 7 5 7 8 5 8 11 17 21 21 20 18 8 7 13 13 11 10 10 11
46 19 11 10 11 11 16 15 14 18 18 13 9 10 9 10 11 8 8 10 11 10 14 19 21 22 22 20 22 22 21 21 20 17 14 15 20 17 13 11 11 13 14
23 12 10 8 13 18 17 15 15 14 9 5 7 8 10 10 10 9 14 16 19 22 28 35 38 40 42 43 43 40 37 35 31 25 20 16 15 11 9 9 9 10 10
25 17 15 13 14 12 14 15 14 10 5 2 8 13 10 8 12 17 24 28 28 28 29 30 30 31 31 33 33 33 31 28 25 22 18 14 10 8 6 5 4 4 5
14 11 13 12 11 13 13 13 12 7 2 4 17 12 12 15 22 30 30 29 26 25 23 19 21 21 23 27 26 25 24 22 21 19 17 13 9 4 2 5 8 10 12
10 11 8 8 10 10 11 11 8 6 5 15 17 15 19 23 28 27 28 26 23 19 18 15 14 14 12 17 20 20 17 14 13 11 9 8 7 4 2 7 11 14 15
9 8 9 8 8 8 8 7 7 9 11 18 17 19 23 26 26 24 22 21 19 15 12 10 7 8 6 7 8 9 7 6 4 4 4 9 13 10 12 11 10 14 18
17 13 8 4 2 3 4 6 11 14 15 21 19 18 23 23 21 19 20 17 14 15 13 8 7 5 4 5 4 6 7 8 10 12 15 18 15 16 15 13 16 17 19
17 13 10 5 2 2 2 2 8 16 17 20 23 20 21 24 21 20 18 17 15 13 13 13 12 10 8 9 12 14 14 16 17 17 20 22 19 20 21 21 21 23 25
11 8 5 1 3 3 1 3 7 15 19 20 24 26 22 22 23 22 20 20 19 17 16 16 16 16 15 15 17 17 17 22 24 24 24 25 25 25 24 24 23 22 21
16 6 6 5 2 1 1 2 3 8 16 20 24 27 31 27 26 23 22 20 19 19 18 17 16 18 19 20 22 23 26 26 27 29 28 29 29 29 30 31 31 30 30
11 6 5 2 3 7 3 1 2 3 10 19 22 26 27 27 29 27 22 22 22 20 21 20 20 21 22 24 25 28 30 30 30 32 33 33 34 34 31 29 29 29 30
11 7 7 3 4 6 5 3 8 2 3 10 15 22 25 27 25 24 24 23 21 20 20 22 24 26 25 26 27 29 32 33 32 28 25 23 22 22 23 21 20 19 19
13 11 7 3 5 4 6 3 5 4 2 3 8 11 16 17 19 22 23 24 24 23 24 25 27 26 25 23 20 17 17 18 20 21 23 24 26 27 28 29 30 30 33